Regional Weather Roundup
Issued by NWS Newport/Morehead, NC

Current Version | Previous Version | Text Only | Print | Product List | Glossary On
Versions: 1 2 3 4 5 6 7 8 9 10 11 12 13 14 15 16 17 18 19 20 21 22 23 24 25 26 27 28 29 30 31 32 33 34 35 36 37 38 39 40 41 42 43 44 45 46 47 48 49 50
000 ASUS42 KMHX 252213 RWRMHX WEATHER ROUNDUP FOR EASTERN NORTH CAROLINA NATIONAL WEATHER SERVICE NEWPORT/MOREHEAD CITY NC 600 PM EDT SUN SEP 25 2016 NOTE: "FAIR" INDICATES FEW OR NO CLOUDS BELOW 12,000 FEET WITH NO SIGNIFICANT WEATHER AND/OR OBSTRUCTIONS TO VISIBILITY NCZ015>017-031-032-045>047-102-103-252300- NORTH COAST CITY SKY/WX TMP DP RH WIND PRES REMARKS EDENTON CLOUDY 73 60 63 E3 30.13S ELIZABETH CITY SUNNY 70 55 59 NE9 30.13S KITTY HAWK NOT AVBL MANTEO MOSUNNY 70 57 62 NE8 30.12F $$ NCZ045>047-081-094-103-104-252300- CENTRAL COAST CITY SKY/WX TMP DP RH WIND PRES REMARKS FRISCO MOSUNNY 72 58 61 NE10G17 30.10S $$ NCZ095-097-098-100-101-252300- SOUTHERN COAST CITY SKY/WX TMP DP RH WIND PRES REMARKS BEAUFORT CLOUDY 74 62 66 NE7 30.10R CEDAR ISLAND NOT AVBL JACKSONVILLE CLOUDY 75 65 70 NE8 30.09R PINEY ISLAND CLOUDY N/A N/A N/A NE13G23 30.10S WILMINGTON CLOUDY 77 70 79 E10 30.07S $$ NCZ011>013-027>030-043-044-078>080-089-090>093-098-252300- COASTAL PLAIN CITY SKY/WX TMP DP RH WIND PRES REMARKS AHOSKIE NOT AVBL CLINTON MOSUNNY 76 71 84 E6 30.09R ELIZABETHTOWN MOSUNNY 81 71 71 CALM 30.06S GOLDSBORO CLOUDY 73 70 91 NE9 30.09R GREENVILLE CLOUDY 72 63 73 NE3 30.13S HAVELOCK CLOUDY 74 62 66 NE6 30.11S KENANSVILLE CLOUDY 73 68 83 E3 30.10R KINSTON CLOUDY 73 64 73 NE7 30.12R NEW BERN CLOUDY 74 62 66 E6 30.12R RICHLANDS CLOUDY 74 68 81 NE8 30.10R ROCKY MOUNT CLOUDY 71 65 81 NE6 30.12R WASHINGTON MOSUNNY 70 62 75 NE7 30.12R WHITEVILLE NOT AVBL $$ AMZ130-135-150-152-154-156-158-170-250-252-270-ANZ085-086-088-633-658-670-252300- MARINE OBSERVATIONS STATION/POSITION TIME TEMP WIND PRES WAVE SWELL AIR SEA DIR/SP/G HT/PER HT/PER (UTC) (F) (DEG/KT/KT) (MB) (FT/S) (FT/S) CHESAPEAKE LIGHT NOT AVBL 64 E VA BEACH 2150 70 76 10/ 10/ 12 1019.6 4/10 3/10 DUCK 2148 70 77 30/ 8/ 13 1019.5 2 E DUCK 2141 77 N/A 4/10 2/11 OREGON INLET 2148 71 77 20/ 11/ 15 1019.7 13E OREGON INLT 2130 76 N/A 5/10 3/10 HATTERAS CG 2148 72 80 40/ 11/ 17 1019.0 DIAMOND BUOY 2150 73 85 30/ 19/ 21 1018.3 5/ 8 3/ 8 CAPE LOOKOUT 2200 74 40/ 17/ 19 1018.7 BEAUFORT LAB 2148 74 79 40/ 6/ 11 1018.5 30 SE NEW RVR IN 2108 77 82 70/ 16/ 21 1018.3 30 SE NEW RVR IN 2155 82 N/A 5/ 5 2/11 27 SE WRIGHTSVLE 2108 78 81 70/ 17/ 23 1018.0 5 SE WRIGHTSVLE 2108 78 81 80/ 14/ 19 1019.0 225 S CAPE HAT 2150 82 84 50/ 12/ 14 1016.1 3/ 9 3/ 9 41 SE CHARLESTON 2150 81 82 60/ 16/ 19 1016.0 5/10 3/10 $$

USA.gov is the U.S. government's official web portal to all federal, state and local government web resources and services.